Weather History for Moorhead, MN

Change the Weather History Date:

Wednesday, August 21, 2013

  Actual Average (KFAR) Record (KFAR)
Temperature  
Mean Temperature 73 °F 69 °F  
Max Temperature 84 °F 81 °F 103 °F (1947)
Min Temperature 62 °F 57 °F 40 °F (1920)
Degree Days  
Heating Degree Days 0 1  
Month to date heating degree days 17  
Since 1 June heating degree days 106  
Since 1 July heating degree days 33  
Cooling Degree Days 8 5  
Month to date cooling degree days 127  
Year to date cooling degree days 467  
Since 1 June cooling degree days 436  
Growing Degree Days 23 (Base 50)    
Moisture  
Dew Point 58 °F    
Average Humidity 64    
Maximum Humidity 100    
Minimum Humidity 19    
Precipitation  
Precipitation 0.00 in 0.09 in 1.51 in (1964)
Month to date precipitation 1.61  
Year to date precipitation 15.11  
Snow  
Snow 0.00 in 0.00 in 0.00 in ()
Month to date snowfall 0.0  
Since 1 June snowfall 0.0  
Since 1 July snowfall 0.0  
Snow Depth -    
Sea Level Pressure  
Sea Level Pressure 29.95 in    
Wind  
Wind Speed 8 mph (NNE)    
Max Wind Speed 16 mph    
Max Gust Speed 22 mph    
Visibility 10 miles    
Events      
T = Trace of Precipitation, MM = Missing Value Source: NWS Daily Summary

Daily Weather History Graph

Daily Weather History Graph

Search for Another Location

Airport:

Trip Planner

Search our weather history database for the weather conditions in past years. The results will help you decide how hot, cold, wet, or windy it might be!

Date:

Astronomy

Aug. 21, 2013 Rise Set
Actual Time 6:32 AM CDT 8:26 PM CDT
Civil Twilight 5:59 AM CDT 8:58 PM CDT
Nautical Twilight 5:19 AM CDT 9:38 PM CDT
Astronomical Twilight 4:35 AM CDT 10:21 PM CDT
Moon 8:26 PM CDT (8/21) 7:20 AM CDT (8/21)
Length of Visible Light 14h 58m
Length of Day
13h 53m
Waxing Gibbous, 99% of the Moon is Illuminated
Aug 21
Waxing Gibbous
Aug 28
Last Quarter
Sep 5
New
Sep 12
First Quarter
Sep 19
Full

Hourly Weather History & Observations

Time (CDT) Temp. Heat Index Dew Point Humidity Pressure Visibility Wind Dir Wind Speed Gust Speed Precip Events Conditions
12:15 AM 78.8 °F - 78.8 °F 100% 29.75 in 10.0 mi South 6.9 mph - N/A   Clear
12:35 AM 78.8 °F - 77.0 °F 94% 29.78 in 10.0 mi SW 4.6 mph - N/A   Clear
12:54 AM 77.0 °F - 77.0 °F 100% 29.80 in 10.0 mi WSW 4.6 mph - N/A   Clear
1:15 AM 78.8 °F - 75.2 °F 89% 29.81 in 10.0 mi Calm Calm - N/A   Scattered Clouds
1:35 AM 78.8 °F - 75.2 °F 89% 29.78 in 10.0 mi SSE 3.5 mph - N/A   Scattered Clouds
1:54 AM 77.0 °F - 75.2 °F 94% 29.77 in 10.0 mi South 5.8 mph - N/A   Clear
2:15 AM 77.0 °F - 75.2 °F 94% 29.78 in 10.0 mi Calm Calm - N/A   Clear
2:34 AM 73.4 °F - 73.4 °F 100% 29.80 in 7.0 mi WNW 4.6 mph - N/A   Clear
2:54 AM 71.6 °F - 71.6 °F 100% 29.80 in 7.0 mi NW 4.6 mph - N/A   Clear
3:15 AM 71.6 °F - 71.6 °F 100% 29.80 in 10.0 mi North 11.5 mph - N/A   Clear
3:34 AM 71.6 °F - 66.2 °F 83% 29.80 in 10.0 mi North 15.0 mph - N/A   Clear
3:54 AM 69.8 °F - 64.4 °F 83% 29.81 in 10.0 mi North 10.4 mph 17.3 mph N/A   Clear
4:15 AM 68.0 °F - 64.4 °F 88% 29.82 in 10.0 mi North 9.2 mph - N/A   Clear
4:34 AM 66.2 °F - 62.6 °F 88% 29.84 in 10.0 mi North 9.2 mph - N/A   Clear
4:55 AM 66.2 °F - 62.6 °F 88% 29.85 in 10.0 mi North 9.2 mph - N/A   Clear
5:15 AM 64.4 °F - 62.6 °F 94% 29.86 in 10.0 mi North 9.2 mph - N/A   Clear
5:34 AM 64.4 °F - 60.8 °F 88% 29.87 in 10.0 mi North 10.4 mph - N/A   Clear
5:55 AM 64.4 °F - 60.8 °F 88% 29.87 in 10.0 mi North 9.2 mph - N/A   Clear
6:15 AM 62.6 °F - 60.8 °F 94% 29.88 in 10.0 mi North 10.4 mph - N/A   Clear
6:34 AM 62.6 °F - 60.8 °F 94% 29.89 in 10.0 mi North 10.4 mph - N/A   Clear
6:55 AM 62.6 °F - 60.8 °F 94% 29.90 in 10.0 mi North 8.1 mph - N/A   Clear
7:14 AM 62.6 °F - 60.8 °F 94% 29.91 in 10.0 mi North 8.1 mph - N/A   Clear
7:34 AM 62.6 °F - 60.8 °F 94% 29.91 in 10.0 mi North 9.2 mph - N/A   Clear
7:55 AM 62.6 °F - 60.8 °F 94% 29.91 in 10.0 mi North 8.1 mph - N/A   Clear
8:15 AM 64.4 °F - 60.8 °F 88% 29.92 in 10.0 mi NNE 6.9 mph - N/A   Clear
8:35 AM 64.4 °F - 60.8 °F 88% 29.92 in 10.0 mi NE 5.8 mph - N/A   Clear
8:55 AM 66.2 °F - 62.6 °F 88% 29.93 in 10.0 mi NNE 6.9 mph - N/A   Clear
9:14 AM 66.2 °F - 62.6 °F 88% 29.94 in 10.0 mi NNE 10.4 mph - N/A   Clear
9:35 AM 69.8 °F - 62.6 °F 78% 29.95 in 10.0 mi NNE 11.5 mph - N/A   Clear
9:55 AM 69.8 °F - 62.6 °F 78% 29.95 in 10.0 mi NNE 10.4 mph - N/A   Clear
10:14 AM 71.6 °F - 62.6 °F 73% 29.96 in 10.0 mi NNE 13.8 mph - N/A   Clear
10:35 AM 73.4 °F - 60.8 °F 65% 29.97 in 10.0 mi NNE 11.5 mph - N/A   Clear
10:54 AM 73.4 °F - 62.6 °F 69% 29.98 in 10.0 mi North 11.5 mph 17.3 mph N/A   Clear
11:14 AM 73.4 °F - 60.8 °F 65% 29.98 in 10.0 mi NNE 11.5 mph - N/A   Clear
11:35 AM 75.2 °F - 60.8 °F 61% 29.99 in 10.0 mi NE 11.5 mph - N/A   Clear
11:55 AM 75.2 °F - 60.8 °F 61% 29.99 in 10.0 mi North 11.5 mph 18.4 mph N/A   Clear
12:14 PM 78.8 °F - 57.2 °F 47% 30.00 in 10.0 mi NNE 15.0 mph 19.6 mph N/A   Clear
12:35 PM 78.8 °F - 57.2 °F 47% 30.00 in 10.0 mi NNE 16.1 mph 19.6 mph N/A   Clear
12:54 PM 78.8 °F - 55.4 °F 44% 30.01 in 10.0 mi NNE 15.0 mph 21.9 mph N/A   Clear
1:15 PM 78.8 °F - 55.4 °F 44% 30.00 in 10.0 mi North 12.7 mph - N/A   Clear
1:35 PM 80.6 °F 80.3 °F 53.6 °F 39% 30.00 in 10.0 mi North 13.8 mph 18.4 mph N/A   Clear
1:54 PM 80.6 °F - 51.8 °F 37% 30.00 in 10.0 mi North 12.7 mph 18.4 mph N/A   Clear
2:15 PM 82.4 °F - 51.8 °F 35% 30.00 in 10.0 mi NNE 11.5 mph 16.1 mph N/A   Clear
2:35 PM 82.4 °F - 48.2 °F 30% 30.01 in 10.0 mi NNE 11.5 mph 19.6 mph N/A   Clear
2:54 PM 82.4 °F - 48.2 °F 30% 30.00 in 10.0 mi NE 12.7 mph 18.4 mph N/A   Clear
3:15 PM 82.4 °F - 48.2 °F 30% 30.00 in 10.0 mi NNE 13.8 mph - N/A   Clear
3:34 PM 82.4 °F - 46.4 °F 28% 30.01 in 10.0 mi North 11.5 mph 17.3 mph N/A   Clear
3:54 PM 82.4 °F - 42.8 °F 25% 30.01 in 10.0 mi NNE 11.5 mph 17.3 mph N/A   Clear
4:15 PM 84.2 °F - 37.4 °F 19% 30.01 in 10.0 mi NNE 9.2 mph 16.1 mph N/A   Clear
4:34 PM 84.2 °F - 37.4 °F 19% 30.01 in 10.0 mi NNE 9.2 mph - N/A   Clear
4:54 PM 82.4 °F - 37.4 °F 20% 30.02 in 10.0 mi NNE 9.2 mph - N/A   Clear
5:15 PM 82.4 °F - 37.4 °F 20% 30.02 in 10.0 mi NE 9.2 mph 17.3 mph N/A   Clear
5:34 PM 82.4 °F - 39.2 °F 21% 30.02 in 10.0 mi NNE 9.2 mph - N/A   Clear
5:55 PM 82.4 °F - 41.0 °F 23% 30.02 in 10.0 mi NNE 9.2 mph - N/A   Clear
6:15 PM 82.4 °F - 42.8 °F 25% 30.02 in 10.0 mi North 5.8 mph - N/A   Clear
6:34 PM 80.6 °F - 42.8 °F 26% 30.03 in 10.0 mi North 8.1 mph - N/A   Clear
6:55 PM 80.6 °F - 46.4 °F 30% 30.02 in 10.0 mi North 5.8 mph - N/A   Clear
7:15 PM 78.8 °F - 51.8 °F 39% 30.03 in 10.0 mi North 5.8 mph - N/A   Clear
7:34 PM 75.2 °F - 55.4 °F 50% 30.03 in 10.0 mi North 4.6 mph - N/A   Clear
7:55 PM 73.4 °F - 55.4 °F 53% 30.03 in 10.0 mi North 5.8 mph - N/A   Clear
8:15 PM 71.6 °F - 55.4 °F 57% 30.04 in 10.0 mi North 5.8 mph - N/A   Clear
8:34 PM 71.6 °F - 55.4 °F 57% 30.06 in 10.0 mi North 6.9 mph - N/A   Clear
8:55 PM 71.6 °F - 53.6 °F 53% 30.05 in 10.0 mi NNE 8.1 mph - N/A   Clear
9:15 PM 71.6 °F - 53.6 °F 53% 30.06 in 10.0 mi NE 5.8 mph - N/A   Clear
9:34 PM 71.6 °F - 53.6 °F 53% 30.07 in 10.0 mi NE 4.6 mph - N/A   Clear
9:55 PM 69.8 °F - 55.4 °F 60% 30.07 in 10.0 mi NNE 5.8 mph - N/A   Clear
10:14 PM 68.0 °F - 55.4 °F 64% 30.07 in 10.0 mi NNE 5.8 mph - N/A   Clear
10:35 PM 66.2 °F - 55.4 °F 68% 30.08 in 10.0 mi NNE 5.8 mph - N/A   Clear
10:55 PM 66.2 °F - 55.4 °F 68% 30.08 in 10.0 mi NNE 4.6 mph - N/A   Clear
11:14 PM 64.4 °F - 55.4 °F 73% 30.09 in 10.0 mi NNE 4.6 mph - N/A   Clear
11:35 PM 66.2 °F - 53.6 °F 64% 30.08 in 10.0 mi NNE 8.1 mph - N/A   Clear
11:55 PM 66.2 °F - 53.6 °F 64% 30.08 in 10.0 mi NNE 10.4 mph - N/A   Clear